GW4199 Weather Reports


time (UTC)temp
C
wind
direction
speed
KPH
gust
KPH
rain 1hr
cm
rain 24hr
cm
rain mn
cm
humidity
%
barometer
mb
20260503215005 18 216 17.7 22.5 0.00 0.00 0.00 59 1017.1
20260503214512 18 203 16.1 20.9 0.00 0.00 0.00 59 1017.1
20260503214005 17 179 16.1 25.7 0.00 0.00 0.00 63 1017.1
20260503213506 17 219 17.7 25.7 0.00 0.00 0.00 57 1017.1
20260503213023 18 219 16.1 22.5 0.00 0.00 0.00 61 1017.1
20260503212507 17 183 14.5 22.5 0.00 0.00 0.00 58 1017.2
20260503212007 17 206 17.7 24.1 0.00 0.00 0.00 59 1017.2
20260503211535 17 182 17.7 24.1 0.00 0.00 0.00 57 1017.2
20260503211007 17 185 16.1 22.5 0.00 0.00 0.00 62 1017.3
20260503210508 17 188 16.1 25.7 0.00 0.00 0.00 58 1017.4
20260503210024 17 175 19.3 25.7 0.00 0.00 0.00 56 1017.4
20260503205513 17 155 17.7 25.7 0.00 0.00 0.00 59 1017.5
20260503205004 17 161 19.3 25.7 0.00 0.00 0.00 60 1017.5
20260503204512 17 165 20.9 25.7 0.00 0.00 0.00 59 1017.5
20260503204005 17 141 17.7 24.1 0.00 0.00 0.00 60 1017.5
20260503203503 17 181 19.3 27.4 0.00 0.00 0.00 59 1017.5
20260503203019 17 165 19.3 27.4 0.00 0.00 0.00 58 1017.5
20260503202508 17 163 22.5 27.4 0.00 0.00 0.00 62 1017.5
20260503202008 17 184 17.7 24.1 0.00 0.00 0.00 59 1017.5
20260503201518 17 147 20.9 25.7 0.00 0.00 0.00 59 1017.6
20260503201006 17 150 20.9 25.7 0.00 0.00 0.00 59 1017.7
20260503200508 17 188 16.1 24.1 0.00 0.03 0.00 59 1017.7
20260503200023 17 157 17.7 24.1 0.00 0.03 0.00 60 1017.7
20260503195512 17 186 20.9 24.1 0.00 0.03 0.00 57 1017.8
20260503195009 17 191 17.7 24.1 0.00 0.03 0.00 60 1017.7
20260503194526 17 159 14.5 22.5 0.00 0.05 0.00 60 1017.8
20260503194008 17 180 16.1 24.1 0.00 0.05 0.00 60 1017.9
20260503193510 17 145 16.1 24.1 0.00 0.05 0.00 58 1018.0
20260503193030 17 197 14.5 22.5 0.00 0.08 0.00 59 1018.1
20260503192502 17 193 14.5 22.5 0.00 0.08 0.00 60 1018.2
20260503192005 17 172 17.7 22.5 0.00 0.10 0.00 58 1018.4
20260503191518 17 196 12.9 20.9 0.00 0.13 0.00 58 1018.5
20260503191007 17 186 16.1 22.5 0.00 0.15 0.00 57 1018.6
20260503190503 17 174 16.1 24.1 0.00 0.18 0.00 60 1018.7
20260503190004 16 135 17.7 24.1 0.00 0.18 0.00 60 1018.8
20260503185504 17 132 16.1 22.5 0.00 0.20 0.00 59 1018.8
20260503185003 17 105 14.5 20.9 0.00 0.20 0.00 60 1018.8
20260503184505 17 117 16.1 22.5 0.00 0.23 0.00 59 1018.8
20260503184003 17 150 16.1 25.7 0.00 0.23 0.00 57 1018.8
20260503183503 17 107 16.1 25.7 0.00 0.25 0.00 59 1018.9
20260503183010 17 150 19.3 25.7 0.00 0.25 0.00 59 1019.1
20260503182504 17 129 17.7 25.7 0.00 0.25 0.00 59 1019.2
20260503182008 17 150 16.1 25.7 0.00 0.25 0.00 59 1019.2
20260503181512 17 155 17.7 22.5 0.00 0.25 0.00 57 1019.2
20260503181009 17 142 12.9 22.5 0.00 0.25 0.00 56 1019.2
20260503180506 17 144 16.1 22.5 0.00 0.25 0.00 60 1019.3
20260503180016 16 125 16.1 22.5 0.00 0.25 0.00 58 1019.4
20260503175502 16 138 14.5 20.9 0.00 0.25 0.00 58 1019.3
20260503175003 17 110 16.1 20.9 0.00 0.25 0.00 59 1019.3
20260503174503 17 95 16.1 20.9 0.00 0.25 0.00 58 1019.2
20260503174003 16 100 14.5 20.9 0.00 0.28 0.00 59 1019.2
20260503173507 16 114 14.5 20.9 0.00 0.28 0.00 59 1019.3
20260503173015 16 124 12.9 19.3 0.00 0.30 0.00 60 1019.4
20260503172504 17 128 12.9 19.3 0.00 0.33 0.00 59 1019.5
20260503172003 16 119 11.3 20.9 0.00 0.38 0.00 59 1019.5
20260503171508 16 117 12.9 20.9 0.00 0.41 0.00 59 1019.5
20260503171003 17 136 12.9 22.5 0.00 0.46 0.00 59 1019.5
20260503170504 16 120 14.5 22.5 0.00 0.48 0.00 58 1019.6
20260503151003 16 11 11.3 19.3 0.00 0.76 0.00 65 1019.8
20260503150503 16 51 11.3 20.9 0.00 0.79 0.00 65 1019.8
20260503131006 14 20 14.5 20.9 0.00 2.13 0.00 84 1019.2
20260503130507 14 28 14.5 20.9 0.00 2.13 0.00 85 1019.2
20260503110509 11 35 6.4 12.9 0.00 2.51 0.00 91 1018.0
20260503090510 11 13 9.7 14.5 0.00 3.02 0.00 92 1016.5
20260503081541 11 4 9.7 12.9 0.00 3.17 0.00 92 1016.3
20260503081010 11 349 8.0 12.9 0.00 3.20 0.00 92 1016.2
20260503080442 11 351 9.7 14.5 0.00 3.20 0.00 92 1016.3
20260503072943 11 13 9.7 14.5 0.00 3.30 0.00 92 1015.8
20260503072445 11 5 9.7 16.1 0.00 3.30 0.00 92 1015.7
20260503071943 11 356 8.0 16.1 0.00 3.30 0.00 92 1015.8
20260503071442 11 347 11.3 16.1 0.00 3.30 0.00 92 1015.8
20260503070942 11 23 9.7 19.3 0.00 3.33 0.00 93 1015.8
20260503070441 11 349 12.9 19.3 0.00 3.33 0.00 93 1015.7
20260503054942 11 4 14.5 19.3 0.00 3.40 0.00 93 1015.4
20260503054442 11 333 11.3 19.3 0.00 3.40 0.00 94 1015.4
20260503053941 11 333 14.5 20.9 0.00 3.40 0.00 94 1015.5
20260503053441 11 327 12.9 20.9 0.00 3.40 0.00 94 1015.5
20260503052943 11 7 16.1 20.9 0.00 3.40 0.00 93 1015.4
20260503052442 11 9 11.3 25.7 0.00 3.40 0.00 94 1015.4
20260503051942 11 18 16.1 25.7 0.00 3.40 0.00 93 1015.3
20260503051442 12 1 14.5 24.1 0.00 3.40 0.00 93 1015.4
20260503050942 12 33 16.1 25.7 0.00 3.40 0.00 93 1015.4
20260503050443 12 18 14.5 25.7 0.00 3.40 0.00 93 1015.4
20260503045943 12 333 16.1 22.5 0.00 3.40 0.00 93 1015.4
20260503045445 12 352 14.5 22.5 0.00 3.40 0.00 93 1015.3
20260503044945 12 13 16.1 22.5 0.00 3.40 0.00 93 1015.1
20260503044443 12 359 14.5 22.5 0.00 3.40 0.00 92 1015.0
20260503043942 12 347 16.1 24.1 0.00 3.40 0.00 92 1014.9
20260503043443 12 21 12.9 25.7 0.00 3.40 0.00 93 1015.1
20260503042944 12 24 17.7 27.4 0.00 3.40 0.00 92 1015.1
20260503042442 12 13 17.7 27.4 0.00 3.40 0.00 92 1015.1
20260503041941 12 8 20.9 29.0 0.00 3.40 0.00 92 1015.0
20260503041443 12 7 14.5 29.0 0.00 3.40 0.00 93 1014.9
20260503040942 12 8 17.7 29.0 0.00 3.40 0.00 92 1014.8
20260503040441 12 17 14.5 22.5 0.00 3.40 0.00 93 1014.8
20260503035942 12 27 14.5 22.5 0.00 3.40 0.00 93 1014.6
20260503035443 12 20 16.1 22.5 0.00 3.40 3.40 92 1014.7
20260503034944 13 12 17.7 25.7 0.00 3.40 3.40 92 1014.6
20260503034443 13 331 17.7 25.7 0.00 3.40 3.40 92 1014.6
20260503033944 13 337 19.3 25.7 0.00 3.40 3.40 92 1014.4
20260503033443 13 326 14.5 20.9 0.00 3.40 3.40 93 1014.2
20260503032945 13 323 12.9 22.5 0.00 3.40 3.40 93 1014.2
20260503032446 13 328 14.5 22.5 0.00 3.40 3.40 94 1014.1
20260503031943 13 4 16.1 20.9 0.00 3.40 3.40 93 1014.1
20260503031446 13 337 14.5 19.3 0.00 3.40 3.40 93 1014.0
20260503030941 13 347 14.5 19.3 0.00 3.40 3.40 93 1013.9
20260503030444 13 331 14.5 20.9 0.00 3.40 3.40 94 1013.9
20260503025942 13 328 12.9 20.9 0.00 3.40 3.40 93 1013.9
20260503025441 13 340 12.9 19.3 0.00 3.43 3.40 93 1013.9
20260503024942 13 335 12.9 20.9 0.00 3.43 3.40 93 1013.9
20260503024443 13 347 11.3 22.5 0.00 3.43 3.40 94 1013.8
20260503023943 13 19 16.1 22.5 0.00 3.43 3.40 93 1013.8
20260503023442 13 338 14.5 22.5 0.00 3.43 3.40 93 1013.7
20260503022944 13 14 14.5 22.5 0.00 3.43 3.40 93 1013.5
20260503022444 13 335 16.1 22.5 0.00 3.43 3.40 93 1013.3
20260503021943 13 346 12.9 19.3 0.00 3.43 3.40 93 1013.3
20260503021444 13 340 12.9 20.9 0.00 3.43 3.40 94 1013.2
20260503020945 13 340 14.5 20.9 0.00 3.43 3.40 94 1013.1
20260503020444 13 342 14.5 20.9 0.00 3.43 3.40 94 1013.1
20260503015945 13 26 16.1 20.9 0.00 3.43 3.40 94 1013.0
20260503015444 13 26 14.5 22.5 0.00 3.43 3.40 94 1012.9
20260503014944 13 20 17.7 22.5 0.00 3.43 3.40 94 1012.7
20260503014442 13 27 14.5 24.1 0.00 3.43 3.40 94 1012.7
20260503013941 13 8 14.5 24.1 0.00 3.43 3.40 95 1012.5
20260503013442 13 4 17.7 24.1 0.00 3.43 3.40 94 1012.6
20260503012946 13 347 16.1 22.5 0.00 3.43 3.40 94 1012.7
20260503012443 13 336 14.5 22.5 0.00 3.43 3.40 94 1012.7
20260503011942 13 341 14.5 25.7 0.00 3.43 3.40 94 1012.8
20260503011444 13 349 16.1 25.7 0.00 3.43 3.40 94 1012.9
20260503010943 13 1 14.5 22.5 0.00 3.43 3.40 94 1012.7
20260503010445 13 32 11.3 24.1 0.00 3.43 3.40 95 1012.5
20260503005944 13 17 16.1 24.1 0.00 3.43 3.40 95 1012.7
20260503005444 13 9 16.1 24.1 0.00 3.43 3.40 94 1012.5
20260503004944 13 34 17.7 24.1 0.00 3.43 3.40 95 1012.5
20260503004447 13 4 16.1 22.5 0.00 3.43 3.40 95 1012.3
20260503003943 13 32 16.1 22.5 0.00 3.43 3.40 95 1012.1
20260503003444 13 11 16.1 25.7 0.00 3.45 3.40 95 1011.8
20260503002942 13 18 16.1 25.7 0.00 3.45 3.40 95 1011.8
20260503002442 13 4 16.1 25.7 0.00 3.45 3.40 96 1011.8
20260503001942 13 32 14.5 25.7 0.00 3.45 3.40 97 1011.6
20260503001443 13 339 19.3 25.7 0.00 3.45 3.40 96 1011.8
20260503000942 13 330 16.1 22.5 0.00 3.45 3.40 96 1011.8
20260503000442 13 349 12.9 20.9 0.00 3.45 3.40 97 1011.6
20260502235945 13 336 11.3 19.3 0.00 3.45 3.40 97 1011.7
20260502235443 13 15 12.9 25.7 0.00 3.45 3.40 97 1011.6
20260502234943 13 351 16.1 25.7 0.00 3.48 3.40 97 1011.7
20260502234446 13 13 19.3 25.7 0.00 3.48 3.40 97 1011.5
20260502233944 13 358 19.3 24.1 0.00 3.48 3.40 97 1011.4
20260502233444 13 349 16.1 22.5 0.00 3.48 3.40 97 1011.4
20260502232944 13 37 11.3 24.1 0.00 3.48 3.40 97 1011.1
20260502232443 13 320 16.1 25.7 0.00 3.48 3.40 97 1011.2
20260502231944 13 29 20.9 25.7 0.00 3.48 3.40 97 1011.0
20260502231445 13 13 17.7 27.4 0.00 3.48 3.40 97 1010.8
20260502230945 13 13 19.3 29.0 0.00 3.51 3.40 97 1010.9
20260502230443 13 18 17.7 29.0 0.00 3.51 3.40 97 1010.9
20260502225944 13 31 22.5 29.0 0.00 3.53 3.40 97 1010.9
20260502225442 13 18 17.7 29.0 0.00 3.53 3.40 97 1010.8
20260502224945 13 27 17.7 24.1 0.00 3.53 3.40 97 1010.7
20260502224444 13 34 17.7 30.6 0.00 3.56 3.40 97 1010.9
20260502223943 13 30 19.3 30.6 0.00 3.58 3.40 97 1011.0
20260502223443 13 35 20.9 30.6 0.00 3.58 3.40 97 1010.9
20260502222945 13 27 16.1 29.0 0.00 3.58 3.40 97 1010.9
20260502222443 13 16 20.9 29.0 0.00 3.58 3.40 97 1010.8
20260502221944 13 13 17.7 32.2 0.00 3.58 3.40 97 1010.7
20260502221444 13 20 20.9 32.2 0.00 3.58 3.40 97 1010.7
20260502220946 13 4 16.1 24.1 0.00 3.58 3.40 97 1010.6
20260502220446 13 25 16.1 25.7 0.00 3.58 3.40 97 1010.6
20260502215947 13 18 16.1 25.7 0.00 3.58 3.40 97 1010.5
20260502215445 13 27 14.5 24.1 0.00 3.61 3.40 97 1010.3